Good Hope, IL

8:58 PM CDT on September 25, 2016 (GMT -0500)
Macomb Municipal

Weather History for KMQB - February, 2014

Change the Weather History Date:

Friday, February 28, 2014

  Actual Average (KBRL) Record (KBRL)
Temperature  
Mean Temperature 24 °F 35 °F  
Max Temperature 40 °F 44 °F 69 °F (1932)
Min Temperature 7 °F 26 °F -7 °F (1962)
Degree Days  
Heating Degree Days 42 30  
Month to date heating degree days 976  
Since 1 July heating degree days 4378  
Cooling Degree Days 0 0  
Month to date cooling degree days 0  
Year to date cooling degree days 0  
Moisture  
Dew Point 14 °F    
Average Humidity 65    
Maximum Humidity 81    
Minimum Humidity 48    
Precipitation  
Precipitation 0.00 in 0.08 in 0.54 in (1951)
Month to date precipitation 1.62  
Year to date precipitation 2.86  
Sea Level Pressure  
Sea Level Pressure 30.03 in    
Wind  
Wind Speed 11 mph (SE)    
Max Wind Speed 22 mph    
Max Gust Speed 25 mph    
Visibility 10 miles    
Events      
T = Trace of Precipitation, MM = Missing Value Source: NWS Daily Summary

Daily Weather History Graph

Daily Weather History Graph

Search for Another Location

Airport or City:

Trip Planner

Search our weather history database for the weather conditions in past years. The results will help you decide how hot, cold, wet, or windy it might be!

Date:

Astronomy

Feb. 28, 2014 Rise Set
Actual Time 6:37 AM CST 5:52 PM CST
Civil Twilight 6:10 AM CST 6:20 PM CST
Nautical Twilight 5:38 AM CST 6:52 PM CST
Astronomical Twilight 5:07 AM CST 7:23 PM CST
Moon 5:52 AM CST (2/28) 5:30 PM CST (2/28)
Length of Visible Light 12h 09m
Length of Day
11h 15m
Waning Crescent, 1% of the Moon is Illuminated
Feb 28
Waning Crescent
Mar 1
New
Mar 8
First Quarter
Mar 16
Full
Mar 23
Last Quarter

Hourly Weather History & Observations

Time (CST) Temp. Windchill Dew Point Humidity Pressure Visibility Wind Dir Wind Speed Gust Speed Precip Events Conditions
12:15 AM 8.1 °F -4.3 °F 1.6 °F 75% 30.15 in 10.0 mi East 8.1 mph - N/A   Mostly Cloudy
12:35 AM 8.1 °F -6.2 °F 1.0 °F 73% 30.14 in 10.0 mi East 10.4 mph - N/A   Scattered Clouds
12:55 AM 7.7 °F -4.8 °F 0.7 °F 73% 30.13 in 10.0 mi East 8.1 mph - N/A   Clear
1:15 AM 7.5 °F -5.0 °F 0.5 °F 73% 30.14 in 10.0 mi East 8.1 mph - N/A   Clear
1:35 AM 7.7 °F -5.8 °F 0.1 °F 71% 30.14 in 10.0 mi ESE 9.2 mph - N/A   Clear
1:55 AM 7.7 °F -5.8 °F 0.3 °F 72% 30.14 in 10.0 mi ESE 9.2 mph - N/A   Clear
2:15 AM 7.3 °F -4.1 °F 0.9 °F 75% 30.14 in 10.0 mi ESE 6.9 mph - N/A   Clear
2:35 AM 7.2 °F -4.3 °F 1.0 °F 76% 30.13 in 10.0 mi ESE 6.9 mph - N/A   Clear
2:55 AM 7.3 °F -5.2 °F 1.2 °F 76% 30.12 in 10.0 mi ESE 8.1 mph - N/A   Clear
3:15 AM 7.3 °F -4.1 °F 1.2 °F 76% 30.13 in 10.0 mi ESE 6.9 mph - N/A   Clear
3:35 AM 7.3 °F -4.1 °F 1.4 °F 77% 30.12 in 10.0 mi ESE 6.9 mph - N/A   Scattered Clouds
3:55 AM 7.5 °F -5.0 °F 2.1 °F 79% 30.12 in 10.0 mi East 8.1 mph - N/A   Scattered Clouds
4:15 AM 7.5 °F -5.0 °F 2.3 °F 79% 30.12 in 10.0 mi ESE 8.1 mph - N/A   Scattered Clouds
4:35 AM 7.5 °F -5.0 °F 2.3 °F 79% 30.11 in 10.0 mi ESE 8.1 mph - N/A   Clear
4:55 AM 7.7 °F -5.8 °F 2.7 °F 80% 30.11 in 10.0 mi ESE 9.2 mph - N/A   Clear
5:15 AM 7.7 °F -6.6 °F 2.8 °F 81% 30.10 in 10.0 mi ESE 10.4 mph - N/A   Clear
5:35 AM 8.1 °F -7.7 °F 3.0 °F 80% 30.11 in 10.0 mi ESE 12.7 mph - N/A   Clear
5:55 AM 8.6 °F -6.3 °F 3.6 °F 80% 30.12 in 10.0 mi ESE 11.5 mph - N/A   Mostly Cloudy
6:20 AM 9.1 °F -6.4 °F 3.7 °F 79% 30.10 in 10.0 mi ESE 12.7 mph - N/A   Overcast
6:35 AM 9.1 °F -5.6 °F 3.7 °F 79% 30.10 in 10.0 mi ESE 11.5 mph - N/A   Mostly Cloudy
6:55 AM 9.1 °F -6.4 °F 3.7 °F 79% 30.10 in 10.0 mi SE 12.7 mph - N/A   Clear
7:15 AM 9.5 °F -5.2 °F 3.9 °F 78% 30.10 in 10.0 mi ESE 11.5 mph - N/A   Scattered Clouds
7:35 AM 10.4 °F -4.8 °F 4.5 °F 77% 30.10 in 10.0 mi SE 12.7 mph - N/A   Mostly Cloudy
7:55 AM 11.3 °F -5.5 °F 5.7 °F 78% 30.10 in 10.0 mi SE 16.1 mph - N/A   Overcast
8:15 AM 12.2 °F -4.8 °F 5.9 °F 76% 30.10 in 10.0 mi SE 17.3 mph - N/A   Overcast
8:35 AM 13.3 °F -2.9 °F 6.6 °F 75% 30.09 in 10.0 mi SE 16.1 mph 20.7 mph N/A   Scattered Clouds
8:55 AM 14.2 °F -2.3 °F 7.2 °F 74% 30.09 in 10.0 mi SE 17.3 mph - N/A   Clear
9:15 AM 16.2 °F 1.9 °F 8.1 °F 70% 30.08 in 10.0 mi SE 13.8 mph - N/A   Scattered Clouds
9:35 AM 18.5 °F 2.9 °F 9.1 °F 67% 30.06 in 10.0 mi SE 18.4 mph - N/A   Scattered Clouds
9:55 AM 21.2 °F 5.6 °F 10.0 °F 62% 30.06 in 10.0 mi SE 20.7 mph 25.3 mph N/A   Clear
10:15 AM 22.1 °F 7.2 °F 10.6 °F 61% 30.05 in 10.0 mi SSE 19.6 mph - N/A   Clear
10:35 AM 23.7 °F 8.5 °F 10.9 °F 58% 30.05 in 10.0 mi SSE 21.9 mph 25.3 mph N/A   Clear
11:00 AM 25.7 °F 12.3 °F 11.3 °F 55% 30.05 in 10.0 mi SE 18.4 mph - N/A   Clear
11:15 AM 26.6 °F 13.8 °F 12.4 °F 55% 30.04 in 10.0 mi SSE 17.3 mph 23.0 mph N/A   Clear
11:35 AM 28.2 °F 15.2 °F 12.6 °F 52% 30.03 in 10.0 mi SSE 19.6 mph 23.0 mph N/A   Clear
11:55 AM 29.7 °F 17.4 °F 13.6 °F 51% 30.02 in 10.0 mi SSE 18.4 mph - N/A   Clear
12:15 PM 31.6 °F 20.0 °F 15.3 °F 51% 30.01 in 10.0 mi South 18.4 mph 24.2 mph N/A   Clear
12:35 PM 32.0 °F 20.1 °F 16.0 °F 52% 30.00 in 10.0 mi SSE 19.6 mph - N/A   Clear
12:55 PM 32.7 °F 22.1 °F 16.9 °F 52% 29.99 in 10.0 mi SSE 16.1 mph 24.2 mph N/A   Clear
1:15 PM 33.6 °F 22.9 °F 16.9 °F 50% 29.98 in 10.0 mi SSE 17.3 mph - N/A   Clear
1:35 PM 34.9 °F 24.9 °F 18.7 °F 52% 29.97 in 10.0 mi South 16.1 mph - N/A   Clear
1:55 PM 36.0 °F 26.7 °F 19.8 °F 52% 29.96 in 10.0 mi SSE 15.0 mph 21.9 mph N/A   Clear
2:15 PM 36.5 °F 27.0 °F 19.4 °F 50% 29.95 in 10.0 mi South 16.1 mph 20.7 mph N/A   Clear
2:35 PM 37.0 °F 28.1 °F 20.1 °F 50% 29.94 in 10.0 mi SSE 15.0 mph - N/A   Clear
2:55 PM 37.6 °F 28.8 °F 20.5 °F 50% 29.94 in 10.0 mi SSE 15.0 mph - N/A   Clear
3:15 PM 38.5 °F 30.3 °F 20.7 °F 49% 29.93 in 10.0 mi SSE 13.8 mph - N/A   Clear
3:40 PM 39.2 °F 32.0 °F 21.6 °F 49% 29.93 in 10.0 mi SSE 11.5 mph - N/A   Clear
3:55 PM 39.4 °F 31.1 °F 21.6 °F 49% 29.93 in 10.0 mi South 15.0 mph 18.4 mph N/A   Clear
4:15 PM 39.7 °F 32.7 °F 21.6 °F 48% 29.93 in 10.0 mi South 11.5 mph - N/A   Clear
4:35 PM 40.1 °F 33.6 °F 22.3 °F 49% 29.92 in 10.0 mi SSE 10.4 mph - N/A   Clear
4:55 PM 39.6 °F 32.5 °F 22.8 °F 51% 29.92 in 10.0 mi SSE 11.5 mph - N/A   Clear
5:15 PM 38.3 °F 31.4 °F 23.5 °F 55% 29.93 in 10.0 mi South 10.4 mph - N/A   Clear
5:35 PM 37.2 °F 31.2 °F 23.7 °F 58% 29.95 in 10.0 mi South 8.1 mph - N/A   Clear
5:55 PM 36.9 °F 30.7 °F 23.9 °F 59% 29.95 in 10.0 mi SSE 8.1 mph - N/A   Clear
6:15 PM 36.5 °F 30.3 °F 24.3 °F 61% 29.95 in 10.0 mi SSE 8.1 mph - N/A   Scattered Clouds
6:35 PM 36.1 °F 30.6 °F 24.6 °F 63% 29.95 in 10.0 mi South 6.9 mph - N/A   Scattered Clouds
6:55 PM 36.1 °F 29.9 °F 24.4 °F 63% 29.96 in 10.0 mi South 8.1 mph - N/A   Scattered Clouds
7:15 PM 35.6 °F 29.2 °F 24.6 °F 64% 29.96 in 10.0 mi South 8.1 mph - N/A   Clear
7:35 PM 35.2 °F 28.1 °F 24.1 °F 64% 29.96 in 10.0 mi SSE 9.2 mph - N/A   Clear
7:55 PM 34.9 °F 27.7 °F 24.6 °F 66% 29.96 in 10.0 mi SSE 9.2 mph - N/A   Clear
8:15 PM 35.1 °F 27.9 °F 24.4 °F 65% 29.96 in 10.0 mi SSE 9.2 mph - N/A   Clear
8:35 PM 35.1 °F 28.6 °F 24.8 °F 66% 29.97 in 10.0 mi South 8.1 mph - N/A   Clear
8:55 PM 34.3 °F 28.4 °F 25.3 °F 70% 29.97 in 10.0 mi South 6.9 mph - N/A   Clear
9:15 PM 33.8 °F 27.7 °F 25.3 °F 71% 29.97 in 10.0 mi South 6.9 mph - N/A   Clear
9:35 PM 33.8 °F 27.7 °F 25.0 °F 70% 29.97 in 10.0 mi South 6.9 mph - N/A   Clear
9:55 PM 34.9 °F 28.3 °F 24.3 °F 65% 29.97 in 10.0 mi South 8.1 mph - N/A   Clear
10:15 PM 35.4 °F 28.4 °F 23.9 °F 63% 29.97 in 10.0 mi South 9.2 mph - N/A   Scattered Clouds
10:35 PM 35.6 °F 28.6 °F 23.7 °F 62% 29.98 in 10.0 mi South 9.2 mph - N/A   Scattered Clouds
10:55 PM 35.1 °F 27.9 °F 24.1 °F 64% 29.98 in 10.0 mi South 9.2 mph - N/A   Mostly Cloudy
11:15 PM 35.1 °F 27.9 °F 24.3 °F 65% 29.98 in 10.0 mi South 9.2 mph - N/A   Overcast
11:35 PM 35.1 °F 27.9 °F 24.4 °F 65% 29.99 in 10.0 mi South 9.2 mph - N/A   Overcast
11:55 PM 35.6 °F 28.6 °F 23.9 °F 62% 29.99 in 10.0 mi SSW 9.2 mph - N/A   Overcast